Regional Weather Roundup
Issued by NWS San Angelo, TX

Home | Current Version | Previous Version | Text Only | Print | Product List | Glossary On
Versions: 1 2 3 4 5 6 7 8 9 10 11 12 13 14 15 16 17 18 19 20 21 22 23 24 25 26 27 28 29 30 31 32 33 34 35 36 37 38 39 40 41 42 43 44 45 46 47 48 49 50
000
ASUS44 KSJT 192210
RWRSJT
WEST CENTRAL TEXAS REGIONAL WEATHER ROUNDUP
NATIONAL WEATHER SERVICE SAN ANGELO TX
500 PM CDT THU APR 19 2018

NOTE: "FAIR" INDICATES FEW OR NO CLOUDS BELOW 12,000 FEET WITH NO
SIGNIFICANT WEATHER AND/OR OBSTRUCTIONS TO VISIBILITY.

TXZ049-054-064>066-071>073-076>078-098-099-113-114-127-128-139-140-
154-155-168>170-192300
...LOCATIONS ACROSS WEST CENTRAL TEXAS...

CITY           SKY/WX    TMP DP  RH WIND       PRES   REMARKS
SAN ANGELO     SUNNY     77  30  17 E18G26    30.20F
ABILENE        SUNNY     72  30  21 E12       30.25F
DYESS AFB      SUNNY     74  12   9 E14       30.24F
JUNCTION       SUNNY     76  27  16 E16G23    30.22F
SWEETWATER     SUNNY     74  23  15 E20       30.26F
BROWNWOOD      SUNNY     73  28  19 E10       30.26F
COLEMAN        CLEAR     75  29  18 E8        30.25F
SONORA         SUNNY     77  25  14 E10       30.24F
OZONA          FAIR      77  27  15 E12G18    30.22F
BRADY          SUNNY     72  28  20 E12G18    30.25F
$$

TEXAS PANHANDLE/OKLAHOMA PANHANDLE

CITY           SKY/WX    TMP DP  RH WIND       PRES   REMARKS
AMARILLO       SUNNY     68  19  15 SE22G30   30.23F
BORGER         SUNNY     69  20  15 S14       30.23F
CANADIAN       SUNNY     70  25  18 SE12G20   30.25F
DALHART        SUNNY     69  22  16 SE23G31   30.20F
DUMAS          MOCLDY    67  18  15 SE17G26   30.22F
GUYMON         NOT AVBL
HEREFORD       CLEAR     71  18  13 S17G28    30.23F
PAMPA          CLEAR     69  20  15 S15       30.26F
PERRYTON       MOSUNNY   68  23  18 SE16      30.25F
$$

SOUTHERN PANHANDLE/SOUTH PLAINS/ROLLING PLAINS

CITY           SKY/WX    TMP DP  RH WIND       PRES   REMARKS
LUBBOCK        MOSUNNY   71  20  14 SE23G30   30.22F
SNYDER         SUNNY     73  25  16 E15G23    30.24F
CHILDRESS      SUNNY     71  29  21 SE9       30.26F
SEMINOLE       CLEAR     73  22  15 SE21G26   30.20F
$$

PERMIAN BASIN

CITY           SKY/WX    TMP DP  RH WIND       PRES   REMARKS
MIDLAND        MOSUNNY   78  24  13 SE18G26   30.19F
ODESSA         PTSUNNY   77  19  11 SE21G31   30.19F
WINK           SUNNY     79  25  13 E23G29    30.11F
$$

FAR WEST/SOUTHWEST MOUNTAINS/TRANS PECOS

CITY           SKY/WX    TMP DP  RH WIND       PRES   REMARKS
ALPINE         CLEAR     73  34  24 SE17G23   30.21F
DRYDEN           N/A     71  35  26 E17G29    30.16F
EL PASO        PTSUNNY   83  38  20 SE17      29.97F
FORT STOCKTON  SUNNY     74  31  20 SE24G35   30.14F
GUADALUPE PASS MOSUNNY   66  29  24 E32G44    30.15F
MARFA          SUNNY     72  37  28 SE15G28   30.17
PECOS          CLEAR     78  30  17 E24G32    30.11F
$$

DALLAS/FORT WORTH METROPLEX

CITY           SKY/WX    TMP DP  RH WIND       PRES   REMARKS
DFW AIRPORT    MOSUNNY   69  31  24 NE12G22   30.27F
FTW MEACHAM    SUNNY     72  37  28 NE10G17   30.28F
DAL-EXECUTIVE  SUNNY     71  34  25 NE6G17    30.27F
GRAND PRAIRIE  SUNNY     70  32  24 N14G21    30.29
ADDISON        SUNNY     70  32  24 N13G18    30.28F
MESQUITE       CLEAR     66  34  30 N13       30.28F
LANCASTER      CLEAR     70  34  26 NE13      30.28F
$$

NORTH CENTRAL TEXAS

CITY           SKY/WX    TMP DP  RH WIND       PRES   REMARKS
SHRMAN/DENISON CLEAR     66  34  30 N14       30.30F
GAINESVILLE    SUNNY     68  32  25 NE9       30.30F
BRIDGEPORT     CLEAR     71  33  24 NE7       30.30S
DENTON         SUNNY     69  37  30 NE13G21   30.28F
WAXAHACHIE     CLEAR     69  36  29 NE9       30.28F
GRANBURY       CLEAR     72  36  27 NE7       30.29F
$$

WESTERN NORTH TEXAS

CITY           SKY/WX    TMP DP  RH WIND       PRES   REMARKS
WICHITA FALLS  PTSUNNY   69  32  25 E7        30.29F
VERNON         CLEAR     72  31  22 E7G16     30.29F
BRECKENRIDGE   CLEAR     74  30  19 E12G17    30.27F
COMANCHE       SUNNY     73  35  25 NE12G18   30.27F
$$

CENTRAL AND SOUTH CENTRAL TEXAS

CITY           SKY/WX    TMP DP  RH WIND       PRES   REMARKS
AUSTIN/BERGSTM MOSUNNY   74  37  26 NE14      30.22F
WACO           MOSUNNY   73  36  25 N12       30.25F
HILLSBORO      CLEAR     70  39  32 NE12      30.25F
TEMPLE         CLOUDY    70  38  31 NE12      30.26F
KILLEEN-GRAY   MOSUNNY   68  32  26 N9        30.28S
FORT HOOD      CLOUDY    70  33  26 NE10      30.22F
GEORGETOWN     PTSUNNY   72  36  26 NE12G18   30.26F
LAGO VISTA     FAIR      75  34  22 E10G16    30.25S
SAN MARCOS     MOSUNNY   79  36  21 NE17G23   30.23F
NEW BRAUNFELS  SUNNY     78  37  22 E12       30.21F
RANDOLPH AFB   SUNNY     76  38  26 NE10      30.21F
SAN ANTONIO    MOSUNNY   77  35  21 E14G20    30.21F
STINSON        SUNNY     79  41  25 E12       30.19F
PLEASANTON     NOT AVBL
LA GRANGE      SUNNY     76  41  27 NE6       30.19F
GIDDINGS       CLEAR     73  36  25 N8        30.23F
$$

EAST TEXAS

CITY           SKY/WX    TMP DP  RH WIND       PRES   REMARKS
PARIS          MOSUNNY   66  38  35 N12       30.28F
CLARKSVILLE    NOT AVBL
TYLER          PTSUNNY   70  35  27 N12       30.25F
LONGVIEW       CLOUDY    69  41  36 N9        30.24F
PALESTINE      PTCLDY    70  38  30 NE8       30.26S
NACOGDOCHES      N/A     71  43  36 N9        30.23F
$$

TEXAS HILL COUNTRY AND EDWARDS PLATEAU

CITY           SKY/WX    TMP DP  RH WIND       PRES   REMARKS
LLANO          PTCLDY    77  30  18 NE9       30.27F
HORSESHOE BAY  FAIR      76  31  19 E6        30.24F
KERRVILLE      SUNNY     78  19  11 E10       30.22F
FREDERICKSBRG  SUNNY     75  29  18 E8        30.23F
ROCKSPRINGS    CLEAR     79  27  14 S8G18     30.24F
HONDO          SUNNY     79  40  24 E12       30.20F
UVALDE         CLEAR     77  40  26 SE14G20   30.20F
DEL RIO        CLOUDY    74  37  26 S15       30.18F
$$

SOUTHEAST TEXAS

CITY           SKY/WX    TMP DP  RH WIND       PRES   REMARKS
COLLEGE STN    SUNNY     75  37  25 NE16      30.22F
CALDWELL       CLEAR     73  37  26 N8        30.23S
CROCKETT       MOCLDY    72  41  33 NE10      30.25F
BRENHAM        SUNNY     76  38  25 NE9       30.22F
HUNTSVILLE     SUNNY     74  40  29 VRB5      30.22F
CONROE         SUNNY     75  40  28 N7        30.21F
HOUSTON BUSH   FAIR      76  40  27 NE14G20   30.20F
HOUSTON HOBBY  FAIR      76  40  27 N16G22    30.18F
PERLAND        FAIR      78  38  23 NE8       30.20F
WHARTON        CLEAR     77  30  17 N8        30.19F
$$

THE UPPER TEXAS COAST

CITY           SKY/WX    TMP DP  RH WIND       PRES   REMARKS
ORANGE         FAIR      73  45  36 N10G16    30.21S
PORT ARTHUR    FAIR      75  44  33 N14       30.19S
GALVESTON      FAIR      76  45  33 N12       30.20F
ANGLETON       FAIR      80  40  23 NE9       30.18F
BAY CITY       FAIR      79  39  23 NE5       30.18F
$$

TEXAS COASTAL BEND, RIO GRANDE PLAINS DEEP SOUTH TEXAS

CITY           SKY/WX    TMP DP  RH WIND       PRES   REMARKS
VICTORIA       MOSUNNY   81  39  22 NE13      30.19F
BEEVILLE       FAIR      80  40  23 E7        30.18F
ROCKPORT       SUNNY     75  50  41 E13       30.18F
PORT ARANSAS   NOT AVBL
PORT LAVACA    CLEAR     80  35  19 NE10      30.18F
CORPUS CHRISTI MOSUNNY   78  47  33 E14G23    30.18F
KINGSVILLE NAS PTSUNNY   78  47  33 E16       30.17
COTULLA        MOSUNNY   80  42  25 SE14      30.17F
LAREDO         CLOUDY    83  52  34 E13       30.14F
BROWNSVILLE    FAIR      80  66  62 NE18      30.14F
PORT ISABEL    FAIR      78  62  57 NE22G28   30.14F
HEBBRONVILLE   MOCLDY    79  50  36 SE16G23   30.16F
MCALLEN        CLOUDY    82  65  56 E15G24    30.13F
WESLACO        MOSUNNY   81  62  53 E15G21    30.14S
FALFURRIAS     CLEAR     80  53  39 E15       30.16F
EDINBURG       PTCLDY    82  59  45 E16       30.14F
$$



USA.gov is the U.S. government's official web portal to all federal, state and local government web resources and services.